User: anonymous   Login
Location: CNYAC Observatory
(43.2150°N, 74.9500°W)
Time: 22:38:46
(UTC-05:00)
Language:

Meteor 1-22 Rocket - Orbit

View from above orbital plane
View from above orbital plane
View from above satellite
View from above satellite

Ground track
Ground track

The orbit data is extracted from the following two-line orbital elements,

1 08294U 75087B   17021.81771245 -.00000084  00000-0 -53801-4 0  9991
2 08294  81.2155 165.2731 0107283  95.1568 266.1856 14.08586539124243
Epoch (UTC): 21 January 2017 19:37:30
Eccentricity: 0.0107283
inclination: 81.2155°
perigee height: 786 km
apogee height: 942 km
right ascension of ascending node: 165.2731°
argument of perigee: 95.1568°
revolutions per day: 14.08586539
mean anomaly at epoch: 266.1856°
orbit number at epoch: 12424

The dashed part of the orbit path shows where the satellite is in the earth's shadow,  

DLR